Location: Unspecified
(20.0000°S, 0.0000°E)
Time: 15:46:12
(UTC+00:00)

KKS-1 - Pass Details

Date: 30 August 2019
Orbit: 638 x 649 km, 98.3° (Epoch: 18 September)

Event Time Altitude Azimuth Distance (km) Brightness Sun altitude
Rises 19:32:23 0° 342° (NNW) 2,948 ? -24.5°
Reaches altitude 10° 19:35:06 10° 325° (NW) 2,045 ? -25.1°
Maximum altitude 19:38:20 20° 278° (W) 1,512 ? -25.9°
Drops below altitude 10° 19:41:35 10° 232° (SW) 2,059 ? -26.7°
Sets 19:44:21 0° 214° (SW) 2,975 ? -27.3°
